This is the latest recevied weather packets stored in our database for station/object K3MV-13. If no packets are shown the sender has not sent any weather packets the latest 1 day(s).
| Time | Temp. | Humidity | Pressure | Rain* | Wind** | Luminosity | Snow |
|---|---|---|---|---|---|---|---|
| 1778052237 | 13.89° C | 72% | 1008 hPa | 0 mm | - | 0 W/m² | - |
| 1778051934 | 14.44° C | 71% | 1007.9 hPa | 0 mm | - | 0 W/m² | - |
| 1778051329 | 13.89° C | 69% | 1008.5 hPa | 0 mm | - | 0 W/m² | - |
| 1778051026 | 13.89° C | 70% | 1008.7 hPa | 0 mm | - | 0 W/m² | - |
| 1778050723 | 13.89° C | 72% | 1008.6 hPa | 0 mm | - | 0 W/m² | - |
| 1778050421 | 13.89° C | 73% | 1008.5 hPa | 0 mm | - | 0 W/m² | - |
| 1778049812 | 15° C | 71% | 1008.5 hPa | 0 mm | - | 0 W/m² | - |
| 1778049510 | 15° C | 68% | 1008.9 hPa | 0 mm | - | 0 W/m² | - |
| 1778048906 | 15° C | 67% | 1009 hPa | 0 mm | - | 0 W/m² | - |
| 1778048603 | 15° C | 69% | 1009.1 hPa | 0 mm | - | 0 W/m² | - |
| 1778048299 | 15° C | 68% | 1009.2 hPa | 0 mm | - | 0 W/m² | - |
| 1778047996 | 15.56° C | 65% | 1009.1 hPa | 0 mm | - | 0 W/m² | - |
| 1778047694 | 15° C | 63% | 1009.3 hPa | 0 mm | - | 0 W/m² | - |
| 1778047392 | 15° C | 68% | 1009.3 hPa | 0 mm | - | 0 W/m² | - |
| 1778047088 | 14.44° C | 70% | 1009.1 hPa | 0 mm | - | 0 W/m² | - |
| 1778046482 | 15° C | 68% | 1009.3 hPa | 0 mm | - | 0 W/m² | - |
| 1778046179 | 15° C | 71% | 1009.3 hPa | 0 mm | - | 0 W/m² | - |
| 1778045875 | 15° C | 69% | 1009.5 hPa | 0 mm | - | 0 W/m² | - |
| 1778045272 | 15° C | 69% | 1009.2 hPa | 0 mm | - | 0 W/m² | - |
| 1778044667 | 15.56° C | 66% | 1009.6 hPa | 0 mm | - | 0 W/m² | - |
| 1778043455 | 16.67° C | 62% | 1009.7 hPa | 0 mm | - | 0 W/m² | - |
| 1778043152 | 16.67° C | 58% | 1009.9 hPa | 0 mm | - | 0 W/m² | - |
| 1778042244 | 16.67° C | 59% | 1010 hPa | 0 mm | - | 0 W/m² | - |
| 1778041941 | 17.22° C | 57% | 1009.7 hPa | 0 mm | - | 0 W/m² | - |
| 1778041640 | 17.78° C | 52% | 1010.1 hPa | 0 mm | - | 0 W/m² | - |
* Rain latest hour (hover to see other rain measurements)
** Current wind speed in m/s (hover to see current wind gust speed)